Retour au catalogue

STARLINK-31777

ActifCommunicationsVLEO
NORAD 59619·PAYLOAD·🇺🇸 United States

Lancé Apr 28, 2024 depuis Cape Canaveral Space Force Station

Loading…

Prochains Passages (prochaines 24 heures)

TLE

FraisSource: CelesTrak SupGP

Époque: Sep 14, 2026, 22:05 UTC

1 59619C 24080U   26257.92062500  .00058186  00000+0  21074-2 0  2570
2 59619  43.0043  53.0545 0001608 277.7982 269.4453 15.27551092    16

Suivez STARLINK-31777 en temps réel avec AllMySat

Download on the App Store